• In Netherlands
  • List of Countries
  • For 7 days
  • Water Temperature
  • Satellite Maps
  • Weather Map
  • Weather Widgets
  • user-avatar
    Login

    Hourly Weather Blagoevgrad

    Today, 17 August, Thursday

    Time Temperature Precipitation Wind Pressure Humidity
    00:00 +19°C° 0 mm 2 mps 721 mmHg 69%
    01:00 +19°C° 0 mm 2 mps 721 mmHg 70%
    02:00 +20°C° 0 mm 1 mps 721 mmHg 70%
    03:00 +19°C° 0 mm 1 mps 721 mmHg 71%
    04:00 +19°C° 0 mm 1 mps 721 mmHg 72%
    05:00 +19°C° 0 mm 1 mps 721 mmHg 72%
    06:00 +20°C° 0 mm 2 mps 721 mmHg 66%
    07:00 +23°C° 0 mm 2 mps 722 mmHg 59%
    08:00 +25°C° 0 mm 2 mps 722 mmHg 52%
    09:00 +27°C° 0 mm 3 mps 722 mmHg 46%
    10:00 +29°C° 0 mm 3 mps 722 mmHg 40%
    11:00 +30°C° 0 mm 4 mps 722 mmHg 34%
    12:00 +32°C° 0 mm 4 mps 722 mmHg 32%
    13:00 +33°C° 0 mm 4 mps 722 mmHg 31%
    14:00 +33°C° 0 mm 4 mps 721 mmHg 29%
    15:00 +33°C° 0 mm 4 mps 721 mmHg 31%
    16:00 +32°C° 0 mm 4 mps 721 mmHg 32%
    17:00 +32°C° 0 mm 4 mps 721 mmHg 34%
    18:00 +28°C° 0 mm 3 mps 721 mmHg 40%
    19:00 +26°C° 0 mm 3 mps 721 mmHg 46%
    20:00 +24°C° 0 mm 2 mps 721 mmHg 52%
    21:00 +23°C° 0 mm 2 mps 721 mmHg 54%
    22:00 +21°C° 0 mm 2 mps 721 mmHg 56%
    23:00 +20°C° 0 mm 2 mps 722 mmHg 58%

    Tomorrow, 18 August, Friday

    Time Temperature Precipitation Wind Pressure Humidity
    00:00 +21°C° 0 mm 1 mps 722 mmHg 58%
    01:00 +20°C° 0 mm 1 mps 722 mmHg 59%
    02:00 +20°C° 0 mm 1 mps 722 mmHg 59%
    03:00 +20°C° 0 mm 1 mps 722 mmHg 59%
    04:00 +20°C° 0 mm 1 mps 722 mmHg 60%
    05:00 +19°C° 0 mm 1 mps 722 mmHg 60%
    06:00 +21°C° 0 mm 1 mps 722 mmHg 55%
    07:00 +23°C° 0 mm 1 mps 723 mmHg 50%
    08:00 +25°C° 0 mm 1 mps 723 mmHg 45%
    09:00 +27°C° 0 mm 2 mps 723 mmHg 40%
    10:00 +29°C° 0 mm 2 mps 723 mmHg 35%
    11:00 +31°C° 0 mm 2 mps 723 mmHg 31%
    12:00 +31°C° 0 mm 2 mps 723 mmHg 30%
    13:00 +33°C° 0 mm 3 mps 723 mmHg 29%
    14:00 +33°C° 0 mm 3 mps 722 mmHg 28%
    15:00 +33°C° 0 mm 3 mps 722 mmHg 29%
    16:00 +33°C° 0 mm 3 mps 722 mmHg 30%
    17:00 +31°C° 0 mm 3 mps 722 mmHg 31%
    18:00 +29°C° 0 mm 2 mps 722 mmHg 37%
    19:00 +26°C° 0 mm 2 mps 722 mmHg 43%
    20:00 +24°C° 0 mm 2 mps 722 mmHg 50%
    21:00 +23°C° 0 mm 1 mps 722 mmHg 52%
    22:00 +22°C° 0 mm 1 mps 722 mmHg 54%
    23:00 +22°C° 0 mm 1 mps 722 mmHg 56%

    Day after tomorrow, 19 August, Saturday

    Time Temperature Precipitation Wind Pressure Humidity
    00:00 +21°C° 0 mm 1 mps 722 mmHg 56%
    01:00 +21°C° 0 mm 1 mps 722 mmHg 57%
    02:00 +20°C° 0 mm 1 mps 722 mmHg 58%
    03:00 +20°C° 0 mm 1 mps 722 mmHg 58%
    04:00 +20°C° 0 mm 1 mps 722 mmHg 59%
    05:00 +20°C° 0 mm 1 mps 721 mmHg 59%
    06:00 +22°C° 0 mm 1 mps 722 mmHg 53%
    07:00 +24°C° 0 mm 1 mps 722 mmHg 48%
    08:00 +26°C° 0 mm 1 mps 722 mmHg 42%
    09:00 +28°C° 0 mm 1 mps 722 mmHg 37%
    10:00 +30°C° 0 mm 1 mps 722 mmHg 33%
    11:00 +32°C° 0 mm 1 mps 722 mmHg 28%
    12:00 +33°C° 0 mm 1 mps 722 mmHg 27%
    13:00 +33°C° 0 mm 1 mps 722 mmHg 26%
    14:00 +34°C° 0 mm 1 mps 721 mmHg 25%
    15:00 +33°C° 0 mm 1 mps 721 mmHg 26%
    16:00 +33°C° 0 mm 1 mps 721 mmHg 26%
    17:00 +32°C° 0 mm 1 mps 720 mmHg 27%
    18:00 +30°C° 0 mm 1 mps 720 mmHg 32%
    19:00 +28°C° 0 mm 1 mps 720 mmHg 36%
    20:00 +25°C° 0 mm 1 mps 720 mmHg 41%
    21:00 +24°C° 0 mm 1 mps 720 mmHg 44%
    22:00 +23°C° 0 mm 1 mps 720 mmHg 46%
    23:00 +23°C° 0 mm 1 mps 721 mmHg 49%

    20 August, Sunday

    Time Temperature Precipitation Wind Pressure Humidity
    00:00 +22°C° 0 mm 1 mps 720 mmHg 50%
    01:00 +22°C° 0 mm 1 mps 720 mmHg 52%
    02:00 +21°C° 0 mm 1 mps 720 mmHg 53%
    03:00 +21°C° 0 mm 1 mps 720 mmHg 53%
    04:00 +21°C° 0 mm 1 mps 720 mmHg 54%
    05:00 +20°C° 0 mm 1 mps 720 mmHg 54%
    06:00 +23°C° 0 mm 1 mps 720 mmHg 49%
    07:00 +25°C° 0 mm 1 mps 720 mmHg 44%
    08:00 +27°C° 0 mm 1 mps 721 mmHg 39%
    09:00 +29°C° 0 mm 1 mps 721 mmHg 35%
    10:00 +30°C° 0 mm 1 mps 721 mmHg 31%
    11:00 +32°C° 0 mm 2 mps 721 mmHg 27%
    12:00 +32°C° 0 mm 1 mps 721 mmHg 27%
    13:00 +33°C° 0 mm 1 mps 720 mmHg 27%
    14:00 +33°C° 0 mm 1 mps 720 mmHg 27%
    15:00 +32°C° 0 mm 2 mps 720 mmHg 30%
    16:00 +31°C° 0 mm 2 mps 720 mmHg 32%
    17:00 +31°C° 0 mm 2 mps 719 mmHg 34%
    18:00 +29°C° 0 mm 2 mps 719 mmHg 39%
    19:00 +27°C° 0 mm 2 mps 720 mmHg 44%
    20:00 +25°C° 0 mm 2 mps 720 mmHg 49%
    21:00 +24°C° 0.1 mm 2 mps 720 mmHg 55%
    22:00 +23°C° 0.1 mm 2 mps 720 mmHg 60%
    23:00 +21°C° 0.1 mm 2 mps 720 mmHg 66%

    21 August, Monday

    Time Temperature Precipitation Wind Pressure Humidity
    00:00 +20°C° 0.2 mm 2 mps 720 mmHg 70%
    01:00 +20°C° 0.2 mm 2 mps 720 mmHg 74%
    02:00 +19°C° 0.2 mm 2 mps 720 mmHg 78%
    03:00 +19°C° 0.2 mm 2 mps 720 mmHg 80%
    04:00 +19°C° 0.2 mm 2 mps 720 mmHg 82%
    05:00 +18°C° 0.2 mm 2 mps 720 mmHg 84%
    06:00 +19°C° 0.4 mm 2 mps 720 mmHg 82%
    07:00 +20°C° 0.4 mm 2 mps 721 mmHg 79%
    08:00 +21°C° 0.4 mm 2 mps 721 mmHg 76%
    09:00 +21°C° 0.7 mm 2 mps 721 mmHg 73%
    10:00 +23°C° 0.7 mm 2 mps 721 mmHg 69%
    11:00 +24°C° 0.7 mm 2 mps 722 mmHg 65%
    12:00 +25°C° 0.4 mm 2 mps 722 mmHg 62%
    13:00 +26°C° 0.4 mm 2 mps 721 mmHg 59%
    14:00 +26°C° 0.4 mm 2 mps 721 mmHg 55%
    15:00 +27°C° 0.1 mm 2 mps 721 mmHg 54%
    16:00 +27°C° 0.1 mm 2 mps 721 mmHg 53%
    17:00 +27°C° 0.1 mm 2 mps 721 mmHg 52%
    18:00 +25°C° 0.1 mm 2 mps 721 mmHg 59%
    19:00 +24°C° 0.1 mm 2 mps 721 mmHg 65%
    20:00 +21°C° 0.1 mm 2 mps 721 mmHg 72%
    21:00 +21°C° 0 mm 1 mps 721 mmHg 75%
    22:00 +21°C° 0 mm 1 mps 721 mmHg 78%
    23:00 +20°C° 0 mm 1 mps 722 mmHg 81%

    22 August, Tuesday

    Time Temperature Precipitation Wind Pressure Humidity
    00:00 +20°C° 0 mm 1 mps 722 mmHg 82%
    01:00 +19°C° 0 mm 1 mps 722 mmHg 83%
    02:00 +19°C° 0 mm 1 mps 722 mmHg 84%
    03:00 +19°C° 0 mm 1 mps 721 mmHg 85%
    04:00 +19°C° 0 mm 1 mps 721 mmHg 85%
    05:00 +18°C° 0 mm 1 mps 721 mmHg 85%
    06:00 +20°C° 0 mm 1 mps 721 mmHg 77%
    07:00 +22°C° 0 mm 1 mps 722 mmHg 70%
    08:00 +24°C° 0 mm 1 mps 722 mmHg 62%
    09:00 +26°C° 0 mm 1 mps 722 mmHg 54%
    10:00 +29°C° 0 mm 1 mps 722 mmHg 46%
    11:00 +31°C° 0 mm 1 mps 722 mmHg 39%
    12:00 +31°C° 0 mm 1 mps 721 mmHg 38%
    13:00 +32°C° 0 mm 1 mps 721 mmHg 37%
    14:00 +32°C° 0 mm 1 mps 720 mmHg 36%
    15:00 +32°C° 0.1 mm 1 mps 720 mmHg 37%
    16:00 +31°C° 0.1 mm 1 mps 720 mmHg 38%
    17:00 +30°C° 0.1 mm 1 mps 719 mmHg 39%
    18:00 +28°C° 0 mm 1 mps 719 mmHg 45%
    19:00 +27°C° 0 mm 1 mps 719 mmHg 50%
    20:00 +25°C° 0 mm 1 mps 719 mmHg 55%
    21:00 +24°C° 0 mm 1 mps 719 mmHg 58%
    22:00 +23°C° 0 mm 1 mps 719 mmHg 60%
    23:00 +22°C° 0 mm 1 mps 719 mmHg 63%
    Show more